KG5VSR Weather Reports


time (UTC)temp
C
wind
direction
speed
KPH
gust
KPH
rain 1hr
cm
rain 24hr
cm
rain mn
cm
humidity
%
barometer
mb
20260905234722 36 171 4.8 4.8 0.00 0.00 0.00 48 1011.1
20260905231721 36 62 3.2 4.8 0.00 0.00 0.00 47 1011.0
20260905224716 37 69 0.0 0.0 0.00 0.00 0.00 46 1010.8
20260905221712 37 93 4.8 4.8 0.00 0.00 0.00 46 1010.8
20260905214709 36 160 3.2 4.8 0.00 0.00 0.00 47 1011.1
20260905211708 37 9 4.8 11.3 0.00 0.00 0.00 46 1011.1
20260905204704 38 194 1.6 1.6 0.00 0.00 0.00 44 1011.7
20260905201704 36 182 1.6 3.2 0.00 0.00 0.00 47 1012.1
20260905194702 36 336 4.8 4.8 0.00 0.00 0.00 47 1012.6
20260905191659 37 262 1.6 1.6 0.00 0.00 0.00 45 1013.2
20260905184654 37 185 1.6 3.2 0.00 0.00 0.00 46 1013.6
20260905181650 37 84 3.2 3.2 0.00 0.00 0.00 47 1014.0
20260905174647 36 262 1.6 1.6 0.00 0.00 0.00 49 1015.0
20260905171641 36 18 0.0 1.6 0.00 0.00 0.00 49 1015.1
20260905164642 34 335 3.2 3.2 0.00 0.00 0.00 56 1015.3
20260905161640 33 287 0.0 0.0 0.00 0.00 0.00 59 1015.2
20260905154637 32 282 1.6 3.2 0.00 0.00 0.00 65 1015.2
20260905151632 31 202 3.2 3.2 0.00 0.00 0.00 70 1015.3
20260905144632 30 216 1.6 1.6 0.00 0.00 0.00 73 1015.2
20260905141630 29 174 1.6 1.6 0.00 0.00 0.00 75 1015.1
20260905134630 29 186 1.6 1.6 0.00 0.00 0.00 76 1015.1
20260905131625 28 137 0.0 1.6 0.00 0.00 0.00 78 1014.7
20260905124624 26 226 1.6 1.6 0.00 0.00 0.00 83 1014.4
20260905121625 25 346 0.0 0.0 0.00 0.00 0.00 88 1014.2
20260905114620 25 346 0.0 0.0 0.00 0.00 0.00 87 1014.1
20260905111617 25 138 0.0 0.0 0.00 0.00 0.00 87 1014.4
20260905104618 25 138 0.0 0.0 0.00 0.00 0.00 85 1013.9
20260905101617 26 138 0.0 0.0 0.00 0.00 0.00 83 1014.1
20260905094615 26 196 0.0 0.0 0.00 0.00 0.00 81 1014.4
20260905091611 26 166 0.0 0.0 0.00 0.00 0.00 81 1013.8
20260905084607 27 221 0.0 0.0 0.00 0.00 0.00 79 1013.5
20260905081607 27 289 0.0 0.0 0.00 0.00 0.00 77 1013.5
20260905074607 28 199 1.6 1.6 0.00 0.00 0.00 76 1013.6
20260905071603 28 201 0.0 0.0 0.00 0.00 0.00 76 1013.8
20260905064558 28 195 0.0 0.0 0.00 0.00 0.00 76 1014.1
20260905061557 28 192 0.0 0.0 0.00 0.00 0.00 74 1014.1
20260905054555 29 211 0.0 0.0 0.00 0.00 0.00 72 1013.9
20260905051553 30 202 1.6 1.6 0.00 0.00 0.00 69 1013.7
20260905044549 30 182 1.6 3.2 0.00 0.00 0.00 68 1013.8
20260905041546 31 217 1.6 1.6 0.00 0.00 0.00 66 1013.7
20260905034544 31 241 1.6 1.6 0.00 0.00 0.00 63 1013.7
20260905031543 31 183 0.0 0.0 0.00 0.00 0.00 61 1013.7
20260905024542 32 177 1.6 3.2 0.00 0.00 0.00 59 1013.5
20260905021538 32 286 0.0 0.0 0.00 0.00 0.00 59 1013.1
20260905014534 32 198 0.0 0.0 0.00 0.00 0.00 57 1012.5
20260905011531 33 167 3.2 3.2 0.00 0.00 0.00 54 1012.2
20260905004532 33 203 0.0 1.6 0.00 0.00 0.00 53 1011.8
20260905001526 35 158 8.0 9.7 0.00 0.00 0.00 50 1011.5